Weather Roundup
Issued by NWS

Home | Current Version | Previous Version | Graphics & Text | Print | Product List | Glossary Off
Versions: 1 2 3 4 5 6 7 8 9 10 11 12 13 14 15 16 17 18 19 20 21 22 23 24 25 26 27 28 29 30 31 32 33 34 35 36 37 38 39 40 41 42 43 44 45 46 47 48 49 50

000
NZUS93 KARX 190959
HRRWXR

CURRENT HOURLY OBSERVATIONS ACROSS
MUCH OF THE UPPER MISSISSIPPI VALLEY
NATIONAL WEATHER SERVICE LA CROSSE WI
500 AM CDT SAT AUG 19 2017


...SOUTHEAST MINNESOTA...


CITY           SKY/WX    TMP DP  RH WIND       PRES   REMARKS
ROCHESTER      CLEAR     52  52 100 SW6       29.95S
ROCHESTER/MAYO FAIR      56  56 100 CALM      29.94S
WINONA         PTCLDY    54  54 100 CALM      29.93S FOG
AUSTIN         CLEAR     55  54  94 CALM      29.94S FOG
ALBERT LEA     CLEAR     57  57 100 CALM      29.94S FOG
DODGE CENTER   CLEAR     52  52 100 CALM      29.94S
PRESTON        CLEAR     54  52  94 CALM      29.94S
OWATONNA       CLEAR     54  54 100 CALM      29.93F FOG
FARIBAULT      FOG       54  54 100 CALM      29.93S VSB 1/4
$$

...ELSEWHERE IN MINNESOTA...


CITY           SKY/WX    TMP DP  RH WIND       PRES   REMARKS
MINNEAPOLIS    PTCLDY    61  58  90 S3        29.91F
INTNL FALLS    FOG       51  51 100 CALM      29.84R VSB 1
DULUTH         CLEAR     58  57  97 W7        29.87S
RED WING       FOG       55  54  94 CALM      29.91S VSB<1/4
REDWOOD FALLS  FOG       57  56  96 SW3       29.92F VSB 1/4
MANKATO        FOG       56  55  97 S6        29.93S VSB 1/4
WORTHINGTON    FOG       58  58 100 NE3       29.95F VSB 1/4
FAIRMONT       FOG       54  53  97 CALM      29.95R VSB 1/4
$$

...SOUTHWEST WISCONSIN...


CITY           SKY/WX    TMP DP  RH WIND       PRES   REMARKS
LA CROSSE      FOG       62  61  96 S6        29.93S VSB 3/4
PRAIRIE DU CHI FOG       59  58  96 CALM      29.93S VSB 1/4
BOSCOBEL       FOG       60  59  96 CALM      29.94S VSB 1/4
LONE ROCK      NOT AVBL
PLATTEVILLE    CLEAR     57  57 100 NW5       29.94S
FORT MC COY    FOG       54  54 100 CALM      29.94R VSB<1/4
CAMP DOUGLAS   FOG       51  51 100 CALM      29.93R VSB 1/4
MAUSTON-NEW LI FOG       55  55  99 CALM      29.93R VSB 1/2
VIROQUA        FAIR      57  57 100 CALM      29.95S VSB 1/2
WIS DELLS        N/A     57  56  95 S5        29.93R FOG
$$

...ELSEWHERE IN WISCONSIN...


CITY           SKY/WX    TMP DP  RH WIND       PRES   REMARKS
MILWAUKEE      PTCLDY    65  62  90 NW6       29.90R
MADISON        CLEAR     59  57  93 CALM      29.92S FOG
GREEN BAY      CLEAR     58  58 100 W6        29.88S
EAU CLAIRE     PTCLDY    57  55  94 CALM      29.91S FOG
BLACK RVR FLS  FOG       53  53 100 CALM      29.93R VSB<1/4
MEDFORD        FOG       59  59  99 W8        29.92R VSB 1/2
WAUSAU         CLOUDY    63  62  97 NW9       29.90S
WIS RAPIDS     PTCLDY    60  60 100 W3        29.93R FOG
MARSHFIELD     CLEAR     59  57  93 NW5       29.92R FOG
RICE LAKE      FOG       55  54  98 CALM      29.93S VSB<1/4
$$

...NORTHEAST IOWA...


CITY           SKY/WX    TMP DP  RH WIND       PRES   REMARKS
WATERLOO       CLOUDY    58  57  97 SW3       29.92S
DUBUQUE        PTCLDY    58  56  93 CALM      29.94F FOG
DECORAH        CLEAR     54  54 100 CALM      29.92F
MASON CITY     CLEAR     54  53  97 N3        29.95R
CHARLES CITY   CLEAR     55  55 100 CALM      29.94F
OELWEIN        CLOUDY    59  59 100 NE5       29.93S
$$

...ELSEWHERE IN IOWA...


CITY           SKY/WX    TMP DP  RH WIND       PRES   REMARKS
DES MOINES     PTCLDY    66  62  87 SE10      29.91S
IOWA CITY        N/A     66  60  81 NE5       29.93S
FORT DODGE     CLEAR     59  55  88 CALM      29.94R
MARSHALLTOWN   PTCLDY    60  60 100 E3        29.92R
CEDAR RAPIDS   CLOUDY    61  61 100 E5        29.91F
$$

...NORTHERN ILLINOIS...


CITY           SKY/WX    TMP DP  RH WIND       PRES   REMARKS
CHICAGO-OHARE  CLEAR     64  59  83 W3        29.90S
CHICAGO-MIDWAY CLEAR     67  61  81 NW5       29.90S
MOLINE         CLOUDY    66  62  87 E9        29.90F
ROCKFORD       MOCLDY    61  59  93 CALM      29.93S
PEORIA         CLEAR     67  64  90 NE5       29.92R
$$

NOTE: "FAIR" INDICATES FEW OR NO CLOUDS BELOW 12,000 FEET WITH NO
SIGNIFICANT WEATHER AND/OR OBSTRUCTIONS TO VISIBILITY. WIND
SPEEDS ARE IN MILES-PER-HOUR.




USA.gov is the U.S. government's official web portal to all federal, state and local government web resources and services.